DW8052 Weather Reports


time (UTC)temp
C
wind
direction
speed
KPH
gust
KPH
rain 1hr
cm
rain 24hr
cm
rain mn
cm
humidity
%
barometer
mb
20260903174707 14 264 20.9 32.2 0.00 0.00 0.00 58 1019.2
20260903174207 14 263 24.1 35.4 0.00 0.00 0.00 58 1019.2
20260903173206 14 271 24.1 32.2 0.00 0.00 0.00 58 1019.2
20260903172707 14 266 25.7 33.8 0.00 0.00 0.00 58 1019.4
20260903172207 14 261 24.1 35.4 0.00 0.00 0.00 57 1019.2
20260903171207 14 264 25.7 35.4 0.00 0.00 0.00 57 1019.0
20260903170707 14 271 22.5 32.2 0.00 0.00 0.00 57 1019.0
20260903170207 14 266 25.7 33.8 0.00 0.00 0.00 57 1019.3
20260903165707 14 269 25.7 33.8 0.00 0.00 0.00 57 1019.1
20260903165207 14 268 25.7 32.2 0.00 0.00 0.00 56 1019.0
20260903164207 15 267 22.5 32.2 0.00 0.00 0.00 56 1019.4
20260903163707 14 266 25.7 38.6 0.00 0.00 0.00 56 1019.2
20260903163206 14 267 27.4 37.0 0.00 0.00 0.00 56 1019.1
20260903162707 14 258 25.7 32.2 0.00 0.00 0.00 56 1019.0
20260903162207 14 263 22.5 32.2 0.00 0.00 0.00 56 1019.3
20260903161707 14 268 22.5 33.8 0.00 0.00 0.00 56 1019.3
20260903161207 14 275 22.5 33.8 0.00 0.00 0.00 56 1019.3
20260903160707 14 278 22.5 32.2 0.00 0.00 0.00 57 1019.4
20260903160207 14 276 22.5 32.2 0.00 0.00 0.00 57 1019.4
20260903155707 14 281 16.1 25.7 0.00 0.00 0.00 56 1019.4
20260903154206 14 283 20.9 25.7 0.00 0.00 0.00 56 1019.9
20260903153706 14 279 11.3 27.4 0.00 0.00 0.00 55 1019.9
20260903153207 14 281 19.3 32.2 0.00 0.00 0.00 56 1019.9
20260903152706 14 278 27.4 32.2 0.00 0.00 0.00 56 1019.5
20260903152207 14 279 20.9 32.2 0.00 0.00 0.00 56 1019.7
20260903151707 14 286 19.3 24.1 0.00 0.00 0.00 56 1020.1
20260903151207 14 285 14.5 22.5 0.00 0.00 0.00 56 1020.1
20260903150207 14 288 19.3 22.5 0.00 0.00 0.00 56 1019.9
20260903145707 15 292 16.1 20.9 0.00 0.00 0.00 56 1020.0
20260903144706 15 286 19.3 25.7 0.00 0.00 0.00 55 1020.1
20260903144207 15 289 17.7 22.5 0.00 0.00 0.00 55 1020.0
20260903143707 15 282 14.5 19.3 0.00 0.00 0.00 55 1020.0
20260903143206 15 289 14.5 19.3 0.00 0.00 0.00 54 1020.0
20260903142706 15 293 14.5 20.9 0.00 0.00 0.00 54 1019.9
20260903142207 15 307 14.5 20.9 0.00 0.00 0.00 54 1020.1
20260903141706 15 299 9.7 14.5 0.00 0.00 0.00 54 1019.9
20260903141207 15 311 11.3 22.5 0.00 0.00 0.00 53 1019.9
20260903140706 15 294 17.7 24.1 0.00 0.00 0.00 53 1019.8
20260903140206 15 291 11.3 20.9 0.00 0.00 0.00 53 1020.1
20260903135707 15 288 11.3 20.9 0.00 0.00 0.00 53 1020.2
20260903135207 15 285 19.3 25.7 0.00 0.00 0.00 53 1019.7
20260903134707 15 281 20.9 27.4 0.00 0.00 0.00 52 1019.9
20260903134207 15 279 19.3 27.4 0.00 0.00 0.00 52 1019.8
20260903133207 16 291 16.1 20.9 0.00 0.00 0.00 52 1019.8
20260903132706 16 287 11.3 16.1 0.00 0.00 0.00 51 1019.8
20260903132206 16 286 9.7 14.5 0.00 0.00 0.00 51 1020.1
20260903131706 16 267 11.3 16.1 0.00 0.00 0.00 51 1019.8
20260903130207 16 259 11.3 19.3 0.00 0.00 0.00 51 1019.8
20260903125707 16 259 9.7 14.5 0.00 0.00 0.00 51 1019.7
20260903125206 16 265 9.7 16.1 0.00 0.00 0.00 51 1019.5
20260903124706 16 272 14.5 24.1 0.00 0.00 0.00 50 1019.6
20260903124207 16 269 14.5 25.7 0.00 0.00 0.00 50 1019.3
20260903123706 16 272 11.3 22.5 0.00 0.00 0.00 50 1019.4
20260903123207 16 245 11.3 19.3 0.00 0.00 0.00 50 1019.5
20260903122206 16 255 22.5 33.8 0.00 0.00 0.00 50 1019.3
20260903121707 16 254 29.0 45.1 0.00 0.00 0.00 50 1018.9
20260903121206 16 242 30.6 51.5 0.00 0.00 0.00 50 1018.9
20260903120714 17 254 41.8 57.9 0.00 0.00 0.00 49 1018.6
20260903120206 16 257 33.8 49.9 0.00 0.00 0.00 50 1018.6
20260903115706 17 256 29.0 41.8 0.00 0.00 0.00 50 1018.6
20260903114706 17 248 35.4 45.1 0.00 0.00 0.00 50 1018.5
20260903114207 17 248 35.4 48.3 0.00 0.00 0.00 50 1018.3
20260903113207 17 246 35.4 51.5 0.00 0.00 0.00 49 1018.0
20260903112706 17 247 38.6 53.1 0.00 0.00 0.00 49 1017.9
20260903111706 17 240 32.2 38.6 0.00 0.00 0.00 49 1018.0
20260903111207 17 238 30.6 41.8 0.00 0.00 0.00 49 1018.0
20260903110706 17 245 35.4 41.8 0.00 0.00 0.00 48 1018.0
20260903110207 17 247 32.2 45.1 0.00 0.00 0.00 48 1017.7
20260903105706 17 248 30.6 46.7 0.00 0.00 0.00 48 1017.7
20260903105206 17 247 33.8 45.1 0.00 0.00 0.00 48 1017.5
20260903104706 17 244 32.2 41.8 0.00 0.00 0.00 47 1017.2
20260903104206 18 247 30.6 41.8 0.00 0.00 0.00 47 1017.2
20260903103706 18 244 27.4 40.2 0.00 0.00 0.00 47 1017.1
20260903103206 18 240 27.4 37.0 0.00 0.00 0.00 45 1017.3
20260903102206 18 229 11.3 22.5 0.00 0.00 0.00 42 1017.1
20260903101706 18 222 11.3 19.3 0.00 0.00 0.00 41 1017.0
20260903100707 18 233 16.1 29.0 0.00 0.00 0.00 40 1016.8
20260903100206 19 236 20.9 29.0 0.00 0.00 0.00 39 1016.4
20260903095706 19 228 17.7 25.7 0.00 0.00 0.00 37 1016.5
20260903095206 19 219 11.3 19.3 0.00 0.00 0.00 35 1016.4
20260903094706 20 215 11.3 20.9 0.00 0.00 0.00 35 1016.3
20260903094206 20 222 12.9 20.9 0.00 0.00 0.00 35 1016.3
20260903093706 20 234 11.3 19.3 0.00 0.00 0.00 35 1016.1
20260903093206 20 230 11.3 22.5 0.00 0.00 0.00 35 1016.0
20260903092706 20 241 19.3 27.4 0.00 0.00 0.00 34 1015.9
20260903092206 20 252 22.5 29.0 0.00 0.00 0.00 33 1015.5
20260903091706 20 250 20.9 32.2 0.00 0.00 0.00 33 1015.4
20260903091205 20 251 24.1 32.2 0.00 0.00 0.00 33 1015.1
20260903090706 20 256 24.1 27.4 0.00 0.00 0.00 33 1015.0
20260903090207 21 253 25.7 29.0 0.00 0.00 0.00 33 1014.8
20260903085706 21 249 19.3 27.4 0.00 0.00 0.00 33 1014.9
20260903085206 21 233 14.5 22.5 0.00 0.00 0.00 33 1015.0
20260903084206 21 225 11.3 19.3 0.00 0.00 0.00 32 1015.0
20260903083706 21 235 11.3 19.3 0.00 0.00 0.00 33 1014.7
20260903082206 22 266 16.1 20.9 0.00 0.00 0.00 29 1014.4
20260903081706 22 270 17.7 20.9 0.00 0.00 0.00 29 1014.0
20260903081206 22 269 16.1 22.5 0.00 0.00 0.00 28 1014.2
20260903080706 22 268 16.1 20.9 0.00 0.00 0.00 28 1014.1
20260903080206 22 265 17.7 27.4 0.00 0.00 0.00 28 1014.1
20260903075706 22 253 17.7 29.0 0.00 0.00 0.00 28 1014.0
20260903074706 22 260 19.3 32.2 0.00 0.00 0.00 27 1013.6
20260903074205 22 258 24.1 35.4 0.00 0.00 0.00 27 1013.3
20260903073706 23 268 29.0 41.8 0.00 0.00 0.00 27 1013.3
20260903073206 23 259 27.4 37.0 0.00 0.00 0.00 27 1013.2
20260903072706 23 264 30.6 41.8 0.00 0.00 0.00 27 1013.1
20260903071706 23 272 27.4 38.6 0.00 0.00 0.00 26 1012.8
20260903071206 23 266 25.7 35.4 0.00 0.00 0.00 26 1012.8
20260903070706 23 273 32.2 41.8 0.00 0.00 0.00 25 1012.7
20260903070206 24 270 22.5 38.6 0.00 0.00 0.00 25 1012.8
20260903065705 24 267 25.7 40.2 0.00 0.00 0.00 26 1012.6
20260903065206 24 260 27.4 38.6 0.00 0.00 0.00 25 1012.4
20260903064706 24 265 17.7 33.8 0.00 0.00 0.00 25 1012.4
20260903064206 25 265 25.7 32.2 0.00 0.00 0.00 25 1012.3
20260903063706 25 243 17.7 33.8 0.00 0.00 0.00 25 1012.3
20260903063205 25 280 16.1 24.1 0.00 0.00 0.00 26 1012.1
20260903062705 25 260 16.1 24.1 0.00 0.00 0.00 26 1011.9
20260903062205 25 261 24.1 37.0 0.00 0.00 0.00 24 1011.9
20260903061705 25 269 20.9 32.2 0.00 0.00 0.00 24 1011.6
20260903061205 25 272 20.9 40.2 0.00 0.00 0.00 24 1011.7
20260903060706 25 263 22.5 37.0 0.00 0.00 0.00 24 1011.6
20260903060206 25 246 24.1 37.0 0.00 0.00 0.00 24 1011.6
20260903055706 25 263 30.6 45.1 0.00 0.00 0.00 24 1011.5
20260903055206 25 274 32.2 41.8 0.00 0.00 0.00 24 1011.4
20260903054706 25 257 33.8 45.1 0.00 0.00 0.00 24 1011.3
20260903054205 25 269 30.6 41.8 0.00 0.00 0.00 24 1011.1
20260903053706 25 259 30.6 41.8 0.00 0.00 0.00 24 1011.3
20260903053205 25 271 29.0 46.7 0.00 0.00 0.00 24 1010.9
20260903052706 25 261 33.8 46.7 0.00 0.00 0.00 25 1010.9
20260903052206 25 262 25.7 49.9 0.00 0.00 0.00 24 1011.0
20260903051205 25 275 27.4 41.8 0.00 0.00 0.00 25 1010.9
20260903050705 25 278 32.2 53.1 0.00 0.00 0.00 25 1011.0
20260903050205 25 277 32.2 41.8 0.00 0.00 0.00 25 1010.9
20260903045706 25 280 27.4 38.6 0.00 0.00 0.00 27 1010.8
20260903045206 25 254 25.7 41.8 0.00 0.00 0.00 27 1011.0
20260903044706 25 261 29.0 40.2 0.00 0.00 0.00 26 1011.1
20260903044206 25 260 32.2 41.8 0.00 0.00 0.00 25 1010.8
20260903043706 25 255 27.4 41.8 0.00 0.00 0.00 25 1010.8
20260903042205 25 257 27.4 40.2 0.00 0.00 0.00 25 1010.6
20260903041705 25 256 24.1 40.2 0.00 0.00 0.00 25 1010.5
20260903041206 25 266 30.6 48.3 0.00 0.00 0.00 25 1010.5
20260903040205 25 268 29.0 48.3 0.00 0.00 0.00 25 1010.2
20260903035706 25 281 29.0 41.8 0.00 0.00 0.00 25 1010.3
20260903035206 25 263 35.4 53.1 0.00 0.00 0.00 26 1010.3
20260903034706 25 271 33.8 49.9 0.00 0.00 0.00 27 1010.2
20260903034205 25 281 29.0 41.8 0.00 0.00 0.00 28 1010.1
20260903033705 25 274 35.4 45.1 0.00 0.00 0.00 28 1010.0
20260903033205 25 263 38.6 51.5 0.00 0.00 0.00 27 1010.1
20260903032705 25 259 33.8 57.9 0.00 0.00 0.00 27 1010.0
20260903032206 25 289 29.0 45.1 0.00 0.00 0.00 27 1010.3
20260903031706 25 281 25.7 41.8 0.00 0.00 0.00 28 1010.2
20260903031206 25 274 32.2 49.9 0.00 0.00 0.00 27 1010.3
20260903030705 25 288 32.2 48.3 0.00 0.00 0.00 27 1010.2
20260903030205 25 270 27.4 35.4 0.00 0.00 0.00 30 1010.5
20260903025705 25 249 33.8 45.1 0.00 0.00 0.00 29 1010.4
20260903025205 25 263 27.4 46.7 0.00 0.00 0.00 29 1010.4
20260903024705 25 267 35.4 49.9 0.00 0.00 0.00 28 1010.5
20260903023705 25 264 25.7 53.1 0.00 0.00 0.00 29 1010.4
20260903022705 25 259 41.8 56.3 0.00 0.00 0.00 32 1010.1
20260903022205 25 266 45.1 61.2 0.00 0.00 0.00 32 1009.9
20260903021205 24 267 40.2 57.9 0.00 0.00 0.00 33 1009.8
20260903020705 24 276 46.7 56.3 0.00 0.00 0.00 33 1009.6
20260903020205 25 273 46.7 64.4 0.00 0.00 0.00 32 1009.5
20260903015205 25 268 46.7 62.8 0.00 0.00 0.00 33 1009.6
20260903014705 25 273 41.8 59.5 0.00 0.00 0.00 33 1009.6
20260903014206 25 278 40.2 51.5 0.00 0.00 0.00 33 1009.5
20260903013705 25 270 35.4 53.1 0.00 0.00 0.00 33 1009.7
20260903013205 25 275 41.8 59.5 0.00 0.00 0.00 33 1010.0
20260903012705 25 273 38.6 53.1 0.00 0.00 0.00 33 1010.0
20260903012205 25 273 35.4 53.1 0.00 0.00 0.00 32 1009.9
20260903011705 25 268 45.1 62.8 0.00 0.00 0.00 32 1009.9
20260903011205 25 272 46.7 61.2 0.00 0.00 0.00 33 1010.0
20260903010705 25 258 37.0 51.5 0.00 0.00 0.00 33 1009.9
20260903005705 24 276 30.6 41.8 0.00 0.00 0.00 35 1010.1
20260903005206 24 255 24.1 38.6 0.00 0.00 0.00 35 1010.1
20260903004705 24 248 38.6 56.3 0.00 0.00 0.00 35 1010.0
20260903004205 25 240 33.8 46.7 0.00 0.00 0.00 34 1010.1
20260903003705 25 238 22.5 38.6 0.00 0.00 0.00 35 1010.1
20260903003205 25 262 27.4 41.8 0.00 0.00 0.00 34 1010.1
20260903002705 25 274 27.4 41.8 0.00 0.00 0.00 33 1010.0
20260903001705 25 249 25.7 41.8 0.00 0.00 0.00 35 1009.8
20260903001205 24 267 20.9 37.0 0.00 0.00 0.00 36 1009.7
20260903000205 24 285 22.5 32.2 0.00 0.00 0.00 37 1009.8
20260902235705 24 275 24.1 35.4 0.00 0.00 0.00 37 1009.7
20260902234705 24 271 11.3 20.9 0.00 0.00 0.00 39 1009.9
20260902234205 24 279 17.7 27.4 0.00 0.00 0.00 38 1010.0
20260902233705 23 274 11.3 22.5 0.00 0.00 0.00 40 1009.6
20260902232705 23 313 11.3 22.5 0.00 0.00 0.00 41 1009.6
20260902232205 23 328 14.5 22.5 0.00 0.00 0.00 41 1009.6
20260902231205 22 298 17.7 27.4 0.00 0.00 0.00 41 1009.5
20260902230705 22 273 9.7 19.3 0.00 0.00 0.00 43 1009.7
20260902230205 22 319 16.1 19.3 0.00 0.00 0.00 43 1009.5
20260902225705 22 292 17.7 24.1 0.00 0.00 0.00 44 1009.8
20260902225205 22 297 11.3 16.1 0.00 0.00 0.00 44 1009.6
20260902224705 22 288 11.3 16.1 0.00 0.00 0.00 45 1009.4
20260902224205 21 300 11.3 19.3 0.00 0.00 0.00 45 1009.6
20260902223705 21 289 4.8 12.9 0.00 0.00 0.00 47 1009.5
20260902223205 21 312 8.0 11.3 0.00 0.00 0.00 47 1009.5
20260902222705 21 295 4.8 9.7 0.00 0.00 0.00 48 1009.4
20260902222204 21 307 9.7 14.5 0.00 0.00 0.00 48 1009.4
20260902221205 20 318 6.4 11.3 0.00 0.00 0.00 51 1009.3
20260902220704 20 301 9.7 12.9 0.00 0.00 0.00 50 1009.2
20260902220205 20 337 8.0 14.5 0.00 0.00 0.00 51 1009.3
20260902215705 20 314 8.0 14.5 0.00 0.00 0.00 50 1009.1
20260902215205 20 326 9.7 14.5 0.00 0.00 0.00 51 1009.1
20260902214705 20 324 9.7 12.9 0.00 0.00 0.00 51 1009.1
20260902214205 20 328 9.7 12.9 0.00 0.00 0.00 51 1009.3
20260902213705 20 317 8.0 9.7 0.00 0.00 0.00 51 1009.3
20260902212204 20 342 11.3 14.5 0.00 0.00 0.00 51 1009.2
20260902211204 20 324 9.7 12.9 0.00 0.00 0.00 52 1009.5
20260902210704 20 325 9.7 11.3 0.00 0.00 0.00 53 1009.6
20260902210205 19 334 9.7 12.9 0.00 0.00 0.00 53 1009.2
20260902205704 19 337 11.3 16.1 0.00 0.00 0.00 53 1009.2
20260902205204 19 345 11.3 16.1 0.00 0.00 0.00 54 1009.2
20260902204705 18 343 12.9 16.1 0.00 0.00 0.00 54 1009.1
20260902203704 18 343 12.9 14.5 0.00 0.00 0.00 56 1008.9
20260902202704 18 333 11.3 14.5 0.00 0.00 0.00 56 1009.1
20260902202204 18 334 11.3 14.5 0.00 0.00 0.00 56 1009.1
20260902201204 18 330 14.5 19.3 0.00 0.00 0.00 56 1009.3
20260902200704 19 343 14.5 19.3 0.00 0.00 0.00 56 1009.5
20260902195704 19 351 16.1 19.3 0.00 0.00 0.00 55 1009.2
20260902194704 19 354 11.3 16.1 0.00 0.00 0.00 55 1009.3
20260902193705 18 5 14.5 19.3 0.00 0.00 0.00 55 1009.3
20260902193205 18 0 9.7 14.5 0.00 0.00 0.00 57 1009.3
20260902192704 18 348 14.5 19.3 0.00 0.00 0.00 56 1009.5
20260902192204 18 345 11.3 16.1 0.00 0.00 0.00 56 1009.3
20260902191704 18 348 9.7 19.3 0.00 0.00 0.00 56 1009.3
20260902191204 19 347 17.7 24.1 0.00 0.00 0.00 54 1009.4
20260902190705 19 347 19.3 24.1 0.00 0.00 0.00 54 1009.7
20260902190204 19 332 17.7 20.9 0.00 0.00 0.00 54 1010.2
20260902185705 19 329 14.5 19.3 0.00 0.00 0.00 53 1010.2
20260902185205 19 328 17.7 19.3 0.00 0.00 0.00 51 1010.2
20260902184705 19 330 14.5 19.3 0.00 0.00 0.00 51 1010.3
20260902184204 20 333 12.9 16.1 0.00 0.00 0.00 50 1010.3
20260902183204 20 312 11.3 14.5 0.00 0.00 0.00 50 1010.2
20260902182704 19 309 12.9 19.3 0.00 0.00 0.00 51 1010.4
20260902182205 19 308 12.9 19.3 0.00 0.00 0.00 51 1010.5
20260902181704 19 283 14.5 20.9 0.00 0.00 0.00 53 1011.1
20260902181205 19 279 14.5 19.3 0.00 0.00 0.00 53 1011.2
20260902180705 19 268 16.1 19.3 0.00 0.00 0.00 53 1011.0
20260902180204 19 267 16.1 20.9 0.00 0.00 0.00 52 1010.8
20260902175704 19 277 11.3 14.5 0.00 0.00 0.00 50 1010.5
20260902175204 19 292 9.7 12.9 0.00 0.00 0.00 50 1010.3